Flag for France Weather past 2 weeks in Rennes, France

Now
75 °F

Sunny.


Feels Like: 78 °F
Forecast: 58 / 86 °F
Wind: 2 mph from North

Location: Rennes Airport

Current Time: Jul 2, 2015 at 9:07:43 PM

Latest Report: Jul 2, 2015 at 8:30 PM


Visibility: 10 mi

Pressure: 30.18 "Hg

Humidity: 54%

Dew point: 57 °F

Location of RennesLocation

Historic Weather in Rennes — Graph

°F

Rennes temperature yesterday

Maximum temperature yesterday: 86 °F (at 12:30 PM)
Minimum temperature yesterday: 66 °F (at 11:00 PM)
Average temperature yesterday: 75 °F

Past Weeks' High & Low Weather Summary

 TemperatureHumidityPressure
High95 °F (Jun 30, 5:00 PM)100% (Jun 19, 2:30 AM)30.30 "Hg (Jun 19, 2:30 AM)
Low45 °F (Jun 23, 6:00 AM)26% (Jun 30, 5:00 PM)29.80 "Hg (Jul 1, 7:30 AM)
Average66 °F68%30.12 "Hg
* Reported Jun 17 7:00 PM — Jul 2 7:30 PM, Rennes, Weather by CustomWeather, © 2015

Note: Actual official high and low records may vary slightly from our data, if they occured in-between our weather recording intervals... More about our weather records

Advertising

Rennes weather history for previous 24 hours

 ConditionsComfort  
Time TempWeatherWind HumidityBarometerVisibility
7:30 PM
Thu, Jul 2
77 °FPassing clouds.5 mph47%30.18 "HgN/A
7:00 PM77 °FPartly sunny.5 mph51%30.15 "HgN/A
6:30 PM75 °FPassing clouds.5 mph54%30.15 "HgN/A
6:00 PM75 °FPassing clouds.5 mph54%30.15 "HgN/A
5:30 PM75 °FSunny.3 mph54%30.15 "Hg10 mi
5:00 PM73 °FPassing clouds.5 mph61%30.15 "HgN/A
4:30 PM73 °FMore clouds than sun.3 mph57%30.12 "HgN/A
4:00 PM70 °FOvercast.6 mph64%30.12 "HgN/A
3:30 PM70 °FOvercast.7 mph69%30.12 "HgN/A
3:00 PM68 °FMostly cloudy.10 mph73%30.12 "HgN/A
2:30 PM68 °FOvercast.10 mph78%30.12 "HgN/A
2:00 PM68 °FOvercast.10 mph78%30.12 "HgN/A
1:30 PM66 °FOvercast.9 mph83%30.12 "HgN/A
1:00 PM66 °FOvercast.9 mph83%30.12 "HgN/A
12:30 PM66 °FBroken clouds.10 mph83%30.12 "HgN/A
12:00 PM66 °FMostly cloudy.10 mph88%30.09 "HgN/A
11:30 AM66 °FCloudy.8 mph88%30.09 "HgN/A
11:00 AM66 °FMore clouds than sun.7 mph94%30.09 "HgN/A
10:30 AM66 °FBroken clouds.6 mph94%30.07 "HgN/A
10:00 AM68 °FMostly cloudy.3 mph88%30.04 "HgN/A
9:30 AM66 °FSunny.No wind88%30.01 "Hg10 mi
9:00 AM64 °FPartly sunny.7 mph94%30.01 "HgN/A
8:30 AM64 °FThunderstorms. Cloudy.13 mph94%29.95 "HgN/A
8:00 AM64 °FThundershowers. Cloudy.12 mph94%30.04 "HgN/A
7:30 AM64 °FMild.1 mph88%29.95 "HgN/A
7:00 AM64 °FMild.15 mph94%29.89 "HgN/A
6:30 AM63 °FRain. Fog.9 mph94%30.04 "Hg3 mi
6:00 AM63 °FRain. Overcast.3 mph94%30.07 "Hg4 mi
5:30 AM63 °FRain. Overcast.6 mph94%30.07 "Hg4 mi
5:00 AM63 °FRain. Overcast.3 mph94%30.04 "Hg6 mi
4:30 AM64 °FLight rain. Overcast.3 mph83%30.04 "HgN/A
4:00 AM63 °FPassing clouds.7 mph88%29.98 "HgN/A
3:30 AM63 °FClear.7 mph88%30.01 "Hg10 mi
3:00 AM63 °FPassing clouds.3 mph88%30.04 "HgN/A
2:30 AM64 °FClear.3 mph88%30.04 "Hg10 mi
2:00 AM63 °FClear.6 mph94%30.01 "Hg10 mi
1:30 AM63 °FClear.3 mph94%30.01 "Hg10 mi
1:00 AM63 °FPassing clouds.3 mph88%30.01 "HgN/A
12:30 AM63 °FPassing clouds.3 mph88%30.01 "HgN/A
12:00 AM64 °FClear.3 mph83%29.98 "Hg10 mi
11:00 PM
Wed, Jul 1
66 °FSunny.2 mph83%29.98 "Hg10 mi
10:30 PM68 °FSunny.3 mph78%30.01 "Hg10 mi
10:00 PM70 °FSunny.5 mph73%29.98 "Hg10 mi
9:30 PM72 °FSunny.6 mph69%29.98 "Hg10 mi
9:00 PM72 °FPassing clouds.5 mph73%29.95 "HgN/A
Weather by CustomWeather, © 2015

See weather overviewHow to use our weather pages